EW2295 Weather Reports


Display with metric or nautical units.
time (UTC)temp
F
wind
direction
speed
MPH
gust
MPH
rain 1hr
in
rain 24hr
in
rain mn
in
humidity
%
barometer
mb
20260504151045 65 0 0.0 9.0 0.00 0.00 0.00 66 1013.4
20260504150545 65 0 0.0 5.0 0.00 0.00 0.00 66 1013.5
20260504141044 66 0 0.0 4.0 0.00 0.00 0.00 66 1013.1
20260504140546 67 0 0.0 1.0 0.00 0.00 0.00 66 1013.1
20260504140106 67 0 0.0 2.0 0.00 0.00 0.00 67 1013.2
20260504130544 67 0 0.0 7.0 0.00 0.00 0.00 67 1013.5
20260504120105 67 250 1.0 9.0 0.00 0.00 0.00 65 1013.5
20260504110547 68 0 0.0 5.0 0.00 0.00 0.00 64 1013.5
20260504100541 67 0 0.0 7.0 0.00 0.00 0.00 65 1014.1
20260504081553 64 0 0.0 6.0 0.00 0.00 0.00 70 1014.3
20260504081045 65 0 0.0 6.0 0.00 0.00 0.00 71 1014.2
20260504080541 64 0 0.0 5.0 0.00 0.00 0.00 72 1014.3
20260504050547 56 0 0.0 0.0 0.00 0.00 0.00 83 1013.4
20260504045544 56 0 0.0 0.0 0.00 0.00 0.00 84 1013.4
20260504045049 56 0 0.0 0.0 0.00 0.00 0.00 84 1013.4
20260504044552 56 0 0.0 0.0 0.00 0.00 0.00 84 1013.3
20260504044046 56 0 0.0 0.0 0.00 0.00 0.00 84 1013.2
20260504043546 56 0 0.0 0.0 0.00 0.00 0.00 84 1013.3
20260504043050 56 0 0.0 0.0 0.00 0.00 0.00 84 1013.2
20260504042545 56 0 0.0 0.0 0.00 0.00 0.00 84 1013.2
20260504042043 56 0 0.0 0.0 0.00 0.00 0.00 84 1013.2
20260504041553 56 0 0.0 0.0 0.00 0.00 0.00 84 1013.3
20260504041046 56 0 0.0 0.0 0.00 0.00 0.00 84 1013.2
20260504040548 56 0 0.0 0.0 0.00 0.00 0.00 84 1013.2
20260504040049 56 0 0.0 0.0 0.00 0.00 0.00 84 1013.2
20260504035545 56 0 0.0 0.0 0.00 0.00 0.00 84 1013.1
20260504035047 56 0 0.0 0.0 0.00 0.00 0.00 84 1013.1
20260504034553 56 0 0.0 0.0 0.00 0.00 0.00 84 1013.1
20260504034050 56 0 0.0 0.0 0.00 0.00 0.00 84 1013.0
20260504033547 56 0 0.0 0.0 0.00 0.00 0.00 84 1013.1
20260504033104 56 0 0.0 0.0 0.00 0.00 0.00 84 1013.3
20260504032547 56 0 0.0 0.0 0.00 0.00 0.00 84 1013.3
20260504032049 56 0 0.0 0.0 0.00 0.00 0.00 84 1013.4
20260504031559 56 0 0.0 0.0 0.00 0.00 0.00 84 1013.4
20260504031050 56 0 0.0 0.0 0.00 0.00 0.00 84 1013.3
20260504030545 56 0 0.0 0.0 0.00 0.00 0.00 84 1013.4
20260504030050 56 0 0.0 0.0 0.00 0.00 0.00 84 1013.4
20260504025543 56 0 0.0 0.0 0.00 0.00 0.00 83 1013.4
20260504025046 56 0 0.0 0.0 0.00 0.00 0.00 83 1013.4
20260504024601 56 0 0.0 0.0 0.00 0.00 0.00 83 1013.4
20260504024048 56 0 0.0 0.0 0.00 0.00 0.00 83 1013.4
20260504023551 56 0 0.0 0.0 0.00 0.00 0.00 83 1013.4
20260504023048 57 0 0.0 0.0 0.00 0.00 0.00 83 1013.3
20260504022547 57 0 0.0 0.0 0.00 0.00 0.00 84 1013.4
20260504022047 57 0 0.0 5.0 0.00 0.00 0.00 84 1013.3
20260504021554 57 0 0.0 5.0 0.00 0.00 0.00 84 1013.4
20260504021047 57 0 0.0 0.0 0.00 0.00 0.00 84 1013.4
20260504020547 57 0 0.0 0.0 0.00 0.00 0.00 84 1013.4
20260504020051 57 0 0.0 0.0 0.00 0.00 0.00 84 1013.3
20260504015547 57 0 0.0 0.0 0.00 0.00 0.00 84 1013.3
20260504015047 57 0 0.0 0.0 0.00 0.00 0.00 84 1013.3
20260504014550 57 0 0.0 0.0 0.00 0.00 0.00 84 1013.3
20260504014046 57 0 0.0 0.0 0.00 0.00 0.00 84 1013.3
20260504013545 57 0 0.0 0.0 0.00 0.00 0.00 84 1013.4
20260504013103 57 0 0.0 0.0 0.00 0.00 0.00 84 1013.3
20260504012546 57 0 0.0 0.0 0.00 0.00 0.00 84 1013.2
20260504012048 57 0 0.0 0.0 0.00 0.00 0.00 84 1013.3
20260504011548 57 0 0.0 0.0 0.00 0.00 0.00 84 1013.3
20260504011047 57 0 0.0 0.0 0.00 0.00 0.00 84 1013.3
20260504010545 57 0 0.0 0.0 0.00 0.00 0.00 84 1013.2
20260504010052 57 0 0.0 0.0 0.00 0.00 0.00 85 1013.2
20260504005547 57 0 0.0 0.0 0.00 0.00 0.00 85 1013.2
20260504005048 57 0 0.0 0.0 0.00 0.00 0.00 85 1013.2
20260504004601 57 0 0.0 0.0 0.00 0.00 0.00 86 1013.2
20260504004046 56 0 0.0 0.0 0.00 0.00 0.00 86 1013.2
20260504003544 56 0 0.0 0.0 0.00 0.00 0.00 86 1013.2
20260504003100 56 0 0.0 0.0 0.00 0.00 0.00 87 1013.2
20260504002546 56 0 0.0 0.0 0.00 0.00 0.00 87 1013.3
20260504002050 56 0 0.0 0.0 0.00 0.00 0.00 86 1013.3
20260504001556 55 0 0.0 0.0 0.00 0.00 0.00 86 1013.3
20260504001048 55 0 0.0 0.0 0.00 0.00 0.00 86 1013.2
20260504000546 55 0 0.0 0.0 0.00 0.00 0.00 85 1013.2
20260504000054 55 0 0.0 0.0 0.00 0.00 0.00 84 1013.2
20260503235545 56 0 0.0 0.0 0.00 0.00 0.00 84 1013.3
20260503235048 56 0 0.0 0.0 0.00 0.00 0.00 83 1013.1
20260503234552 56 0 0.0 0.0 0.00 0.00 0.00 83 1013.1
20260503234044 57 0 0.0 0.0 0.00 0.00 0.00 82 1013.1
20260503233544 57 0 0.0 0.0 0.00 0.00 0.00 81 1013.1
20260503233055 57 0 0.0 0.0 0.00 0.00 0.00 81 1013.1
20260503232545 58 0 0.0 0.0 0.00 0.00 0.00 81 1013.0
20260503232045 58 0 0.0 1.0 0.00 0.00 0.00 81 1013.0
20260503231553 58 0 0.0 1.0 0.00 0.00 0.00 81 1013.2
20260503231050 58 0 0.0 1.0 0.00 0.00 0.00 81 1013.4
20260503230547 58 0 0.0 0.0 0.00 0.00 0.00 81 1013.4
20260503230053 58 0 0.0 0.0 0.00 0.00 0.00 81 1013.5
20260503225543 58 0 0.0 0.0 0.00 0.00 0.00 81 1013.3
20260503225044 58 0 0.0 0.0 0.00 0.00 0.00 81 1013.2
20260503224549 58 0 0.0 0.0 0.00 0.00 0.00 81 1013.2
20260503224044 58 0 0.0 0.0 0.00 0.00 0.00 82 1013.1
20260503223545 58 0 0.0 0.0 0.00 0.00 0.00 82 1013.0
20260503223052 57 0 0.0 0.0 0.00 0.00 0.00 82 1013.0
20260503222546 57 0 0.0 0.0 0.00 0.00 0.00 82 1013.0
20260503222047 57 0 0.0 0.0 0.00 0.00 0.00 82 1013.0
20260503221554 58 0 0.0 0.0 0.00 0.00 0.00 81 1012.9
20260503221045 58 0 0.0 0.0 0.00 0.00 0.00 81 1013.0
20260503220545 58 0 0.0 0.0 0.00 0.00 0.00 80 1013.0
20260503215546 58 0 0.0 4.0 0.00 0.00 0.00 79 1013.0
20260503215047 59 0 0.0 4.0 0.00 0.00 0.00 79 1013.1
20260503214550 59 0 0.0 4.0 0.00 0.00 0.00 78 1013.1
20260503214046 59 0 0.0 6.0 0.00 0.00 0.00 77 1013.1
20260503213544 60 0 0.0 6.0 0.00 0.00 0.00 77 1013.2
20260503213052 60 212 0.0 5.0 0.00 0.00 0.00 77 1013.1
20260503212544 60 0 0.0 7.0 0.00 0.00 0.00 77 1013.1
20260503212044 60 0 0.0 7.0 0.00 0.00 0.00 77 1013.1
20260503211553 60 0 0.0 5.0 0.00 0.00 0.00 77 1013.1
20260503211047 60 0 0.0 4.0 0.00 0.00 0.00 77 1013.1
20260503210545 60 0 0.0 4.0 0.00 0.00 0.00 77 1013.1
20260503210052 60 0 0.0 4.0 0.00 0.00 0.00 77 1013.0
20260503205543 60 0 0.0 5.0 0.00 0.04 0.00 77 1013.1
20260503205044 60 0 0.0 5.0 0.00 0.04 0.00 77 1013.1
20260503204552 60 0 0.0 5.0 0.00 0.04 0.00 78 1013.0
20260503204043 60 0 0.0 4.0 0.00 0.04 0.00 78 1013.1
20260503203542 60 0 0.0 5.0 0.00 0.04 0.00 78 1013.1
20260503203050 60 0 0.0 5.0 0.00 0.04 0.00 78 1013.2
20260503202543 60 0 0.0 5.0 0.00 0.04 0.00 78 1013.3
20260503202045 60 0 0.0 0.0 0.00 0.04 0.00 78 1013.2
20260503201553 60 0 0.0 0.0 0.00 0.04 0.00 78 1013.2
20260503201042 60 0 0.0 0.0 0.00 0.04 0.00 79 1013.2
20260503200545 60 0 0.0 0.0 0.00 0.04 0.00 79 1013.2
20260503200049 60 0 0.0 0.0 0.00 0.04 0.00 78 1013.2
20260503195544 60 0 0.0 0.0 0.00 0.04 0.00 78 1013.2
20260503195045 60 0 0.0 0.0 0.00 0.04 0.00 79 1013.1
20260503194550 60 0 0.0 0.0 0.00 0.04 0.00 79 1013.2
20260503194046 60 0 0.0 0.0 0.00 0.04 0.00 79 1013.1
20260503193546 60 0 0.0 0.0 0.00 0.04 0.00 78 1013.1
20260503193058 61 0 0.0 0.0 0.00 0.04 0.00 78 1012.9
20260503192545 61 0 0.0 0.0 0.00 0.04 0.00 78 1013.0
20260503192045 61 0 0.0 0.0 0.00 0.04 0.00 78 1012.9
20260503191553 61 0 0.0 0.0 0.00 0.04 0.00 78 1012.9
20260503191043 61 0 0.0 0.0 0.00 0.04 0.00 77 1012.9
20260503190549 61 0 0.0 0.0 0.00 0.04 0.00 77 1012.8
20260503190056 61 0 0.0 0.0 0.00 0.04 0.00 78 1012.9
20260503185542 61 0 0.0 0.0 0.00 0.09 0.00 78 1012.8
20260503185043 61 0 0.0 0.0 0.00 0.09 0.00 78 1012.8
20260503184603 61 0 0.0 0.0 0.00 0.09 0.00 78 1012.7
20260503184044 61 0 0.0 0.0 0.00 0.09 0.00 78 1012.6
20260503183544 61 0 0.0 0.0 0.00 0.09 0.00 78 1012.5
20260503183053 61 0 0.0 0.0 0.00 0.09 0.00 78 1012.5
20260503182548 61 0 0.0 0.0 0.00 0.09 0.00 77 1012.5
20260503182046 61 0 0.0 4.0 0.00 0.09 0.00 77 1012.4
20260503181552 61 0 0.0 8.0 0.00 0.09 0.00 76 1012.4
20260503181047 62 0 0.0 8.0 0.00 0.09 0.00 76 1012.4
20260503180546 62 239 0.0 8.0 0.00 0.09 0.00 76 1012.3
20260503180049 62 215 0.0 8.0 0.00 0.09 0.00 76 1012.3
20260503175545 62 0 0.0 11.0 0.00 0.09 0.00 76 1012.4
20260503175045 62 0 1.0 11.0 0.00 0.09 0.00 76 1012.4
20260503174612 62 0 0.0 14.0 0.00 0.09 0.00 76 1012.4
20260503174045 62 0 1.0 14.0 0.00 0.09 0.00 76 1012.5
20260503173545 62 228 3.0 12.0 0.00 0.09 0.00 75 1012.5
20260503173050 62 249 0.0 15.0 0.00 0.09 0.00 75 1012.5
20260503172543 62 0 3.0 15.0 0.00 0.09 0.00 74 1012.5
20260503172042 62 0 2.0 11.0 0.00 0.09 0.00 74 1012.5
20260503171547 62 271 2.0 14.0 0.00 0.09 0.00 74 1012.4
20260503171045 62 0 0.0 14.0 0.00 0.09 0.00 74 1012.3
20260503170545 63 0 3.0 14.0 0.00 0.09 0.00 73 1012.3